Location: Bakhuizen
(52.8696°N, 5.4575°E)
Time: 23:06:52
(UTC+00:00)

Cosmos 2228 Rocket - Pass Details

Date: 11 May 2021
Orbit: 618 x 652 km, 82.5° (Epoch: 24 June)

Event Time Altitude Azimuth Distance (km) Brightness Sun altitude
Exits shadow 21:45:36 18° 194° (SSW) 1,537 4.6 -15.2°
Maximum altitude 21:48:52 83° 280° (W) 643 3.1 -15.4°
Drops below altitude 10° 21:53:23 10° 10° (N) 2,033 6.5 -15.7°
Sets 21:55:39 0° 11° (N) 2,952 7.5 -15.9°
